Showing default

KUIPER-00116, 65153

Orbit data source: Space-Track

KUIPER-00116, 65153 is a payload satellite owned by Kuiper Systems (US) in LEO that was launched on Mon, 11 Aug 2025 UTC via an FALCON 9 launch vehicle from the Air Force Eastern Test Range (AFETR). Payload-class satellites include a variety of spacecraft equipped with specific instruments for various scientific and technological missions. These include communications satellites like Starlink; space stations such as the ISS; scientific satellites like the Hubble; Earth observation satellites from companies like Planet Labs, Umbra, and HawkEye 360; GPS; miniature CubeSats for education and research; and military/defense satellites.

Loading next visibility...
Identifier
65153, 2025-171X
Orbit
LEO
Country
Flag of USUS
Related business
Manufacturer
Kuiper Systems
Mission
Operational Commercial Communications
Bus & Motor
KUIPER, Unknown motor
Mass
~490 kg wet, ~490 kg dry
Launch date (UTC)
2025-08-11 (10 months ago)
Launch vehicle
FALCON 9
Launch site
Air Force Eastern Test Range (AFETR)
Object type
Payload
Rocket body
Debris
Shape & HBR
Box + 2 Pan, 3.4 m
Radar Cross Section
2.326 m², Large (>1 m²)

Expand to show TLE details & history
Last TLE update: 17 hours ago

TLE from 17 hours ago
0 KUIPER-00116
1 65153U 25171X   26171.13776846  .00003015  00000-0  42431-3 0  9991
2 65153  51.9006  80.1051 0000799  96.5761 263.5292 14.79939962 47848
Epoch: 2026-06-20T03:18Z
TLE epoch observation values (Epoch: 2026-06-20T03:18:23.194Z)
Latitude
-0.00007°
Longitude
122.1517°
Altitude
630.324 km
Speed
7.544 km/s
True Right ascension
05h 20m 25s
True Declination
0° 00' 00"
Sunlit
Object was in daylight at epoch
Visualization orbit readout
Latitude
Unknown
Longitude
Unknown
Altitude
Unknown
Speed
Unknown
Apparent Right ascension
Unknown
Apparent Declination
Unknown
Sunlit
N/A
Visualization observer readout
Local Sidereal Time
07:14:16
Azimuth
Unknown
Elevation
Unknown
Doppler factor
Unknown
Orbital elements
Apogee altitude
630.525 km
Perigee altitude
629.405 km
Semi-major axis
7,008.102 km
Eccentricity
0.00008
Inclination
51.9006°
RAAN
80.1051°
Arg. of periapsis
96.5761°
True anomaly
263.5201°
Mean anomaly
263.5292°
Eccentric anomaly
263.52465°
Mean motion
3.6995 °/min
Orbital period
97.31 mins
BSTAR
0.00042431
Loading maneuver chart data...
Computing Atmospheric mass density...
Loading historical data...
Loading historical data...
Loading historical data...
Loading historical data...
Loading historical data...
Loading historical data...
Loading historical data...

Documentation

Showing up to 5 results
|